Radioactive Concentration measured by Seawater Radiation Monitor near Fukushima Daiichi Nuclear Power Station
Date,Time,Cs137(Bq/L),Cs134(Bq/L),Total β(Bq/L)
2017/02/08,00:00,0.72,0.077,ND
2017/02/08,00:10,0.74,0.059,8.8
2017/02/08,00:20,0.73,0.065,ND
2017/02/08,00:30,0.73,0.064,ND
2017/02/08,00:40,0.75,0.060,9.6
2017/02/08,00:50,0.76,0.059,10
2017/02/08,01:00,0.75,0.064,9.7
2017/02/08,01:10,0.75,0.067,11
2017/02/08,01:20,0.75,0.067,9.2
2017/02/08,01:30,0.74,0.074,ND
2017/02/08,01:40,0.78,0.084,ND
2017/02/08,01:50,0.79,0.085,ND
2017/02/08,02:00,0.80,0.088,9.3
2017/02/08,02:10,0.79,0.090,10
2017/02/08,02:20,0.80,0.091,13
2017/02/08,02:30,0.80,0.092,13
2017/02/08,02:40,0.82,0.085,13
2017/02/08,02:50,0.79,0.091,11
2017/02/08,03:00,0.78,0.093,12
2017/02/08,03:10,0.73,0.082,11
2017/02/08,03:20,0.73,0.076,ND
2017/02/08,03:30,0.74,0.069,10
2017/02/08,03:40,0.73,0.068,10
2017/02/08,03:50,0.75,0.060,11
2017/02/08,04:00,0.79,0.058,9.3
2017/02/08,04:10,0.83,0.054,ND
2017/02/08,04:20,0.82,0.069,ND
2017/02/08,04:30,0.84,0.065,ND
2017/02/08,04:40,0.83,0.065,9.3
2017/02/08,04:50,0.87,0.073,ND
2017/02/08,05:00,0.81,0.066,9.5
2017/02/08,05:10,0.83,0.083,10
2017/02/08,05:20,0.82,0.079,10
2017/02/08,05:30,0.82,0.083,10
2017/02/08,05:40,0.84,0.085,12
2017/02/08,05:50,0.85,0.099,12
2017/02/08,06:00,0.86,0.097,ND
2017/02/08,06:10,0.89,0.095,8.9
2017/02/08,06:20,0.91,0.10,9.3
2017/02/08,06:30,0.91,0.098,8.8
2017/02/08,06:40,0.93,0.097,ND
2017/02/08,06:50,0.90,0.10,ND
2017/02/08,07:00,0.86,0.10,ND
2017/02/08,07:10,0.87,0.092,ND
2017/02/08,07:20,0.86,0.082,ND
2017/02/08,07:30,0.87,0.084,ND
2017/02/08,07:40,0.83,0.085,ND
2017/02/08,07:50,0.86,0.079,ND
2017/02/08,08:00,0.87,0.080,ND
2017/02/08,08:10,0.86,0.090,ND
2017/02/08,08:20,0.84,0.097,11
2017/02/08,08:30,0.86,0.10,12
2017/02/08,08:40,0.89,0.10,10
2017/02/08,08:50,0.94,0.10,14
2017/02/08,09:00,0.94,0.11,16
2017/02/08,09:10,0.96,0.10,13
2017/02/08,09:20,0.99,0.099,12
2017/02/08,09:30,0.99,0.099,11
2017/02/08,09:40,0.96,0.10,15
2017/02/08,09:50,0.94,0.088,13
2017/02/08,10:00,0.92,0.084,14
2017/02/08,10:10,0.87,0.069,14
2017/02/08,10:20,0.86,0.071,12
2017/02/08,10:30,0.85,0.070,12
2017/02/08,10:40,0.84,0.061,10
2017/02/08,10:50,0.80,0.075,11
2017/02/08,11:00,0.81,0.064,12
2017/02/08,11:10,0.83,0.083,12
2017/02/08,11:20,0.83,0.078,15
2017/02/08,11:30,0.84,0.077,17
2017/02/08,11:40,0.85,0.075,14
2017/02/08,11:50,0.88,0.075,16
2017/02/08,12:00,0.90,0.074,11
2017/02/08,12:10,0.92,0.068,10
2017/02/08,12:20,0.94,0.067,ND
2017/02/08,12:30,0.94,0.072,ND
2017/02/08,12:40,0.94,0.077,10
2017/02/08,12:50,0.97,0.075,9.9
2017/02/08,13:00,0.94,0.094,11
2017/02/08,13:10,0.96,0.11,9.3
2017/02/08,13:20,0.96,0.12,11
2017/02/08,13:30,0.96,0.13,9.3
2017/02/08,13:40,0.96,0.14,10
2017/02/08,13:50,0.94,0.14,ND
2017/02/08,14:00,0.91,0.13,ND
2017/02/08,14:10,0.93,0.14,10
2017/02/08,14:20,0.95,0.13,13
2017/02/08,14:30,0.98,0.13,11
2017/02/08,14:40,1.0,0.11,ND
2017/02/08,14:50,1.0,0.12,9.3
2017/02/08,15:00,1.0,0.12,9.3
2017/02/08,15:10,1.0,0.12,ND
2017/02/08,15:20,1.0,0.13,ND
2017/02/08,15:30,1.0,0.14,9.5
2017/02/08,15:40,1.0,0.14,10
2017/02/08,15:50,1.0,0.15,ND
2017/02/08,16:00,1.1,0.14,ND
2017/02/08,16:10,1.1,0.14,ND
2017/02/08,16:20,1.2,0.14,ND
2017/02/08,16:30,1.2,0.13,ND
2017/02/08,16:40,1.2,0.13,ND
2017/02/08,16:50,1.1,0.13,11
2017/02/08,17:00,1.1,0.13,12
2017/02/08,17:10,1.1,0.13,12
2017/02/08,17:20,1.0,0.12,14
2017/02/08,17:30,1.0,0.11,11
2017/02/08,17:40,0.97,0.11,12
2017/02/08,17:50,0.94,0.11,9.7
2017/02/08,18:00,0.96,0.11,ND
2017/02/08,18:10,0.95,0.11,10
2017/02/08,18:20,0.94,0.10,12
2017/02/08,18:30,0.95,0.099,14
2017/02/08,18:40,0.95,0.096,13
2017/02/08,18:50,0.97,0.090,15
2017/02/08,19:00,0.98,0.094,15
2017/02/08,19:10,1.0,0.092,15
2017/02/08,19:20,1.0,0.098,12
2017/02/08,19:30,1.0,0.11,ND
2017/02/08,19:40,1.1,0.12,ND
2017/02/08,19:50,1.1,0.13,ND
2017/02/08,20:00,1.1,0.13,ND
2017/02/08,20:10,1.0,0.13,ND
2017/02/08,20:20,1.1,0.12,ND
2017/02/08,20:30,1.1,0.12,12
2017/02/08,20:40,1.1,0.11,12
2017/02/08,20:50,1.1,0.10,13
2017/02/08,21:00,1.1,0.11,13
2017/02/08,21:10,1.1,0.12,9.5
2017/02/08,21:20,1.0,0.13,ND
2017/02/08,21:30,1.0,0.11,ND
2017/02/08,21:40,1.0,0.12,ND
2017/02/08,21:50,1.0,0.12,ND
2017/02/08,22:00,1.0,0.11,8.9
2017/02/08,22:10,1.0,0.11,11
2017/02/08,22:20,1.0,0.11,14
2017/02/08,22:30,1.0,0.12,16
2017/02/08,22:40,1.0,0.12,17
2017/02/08,22:50,1.0,0.12,14
2017/02/08,23:00,1.0,0.12,16
2017/02/08,23:10,1.0,0.12,15
2017/02/08,23:20,1.0,0.11,15
2017/02/08,23:30,1.0,0.11,14
2017/02/08,23:40,1.0,0.11,15
2017/02/08,23:50,1.0,0.10,15
